Year,Month,Day,Hour,Minute,Value (Times are PST for temperature in C)
2014,07,10,00,00,13.70
2014,07,10,00,01,13.70
2014,07,10,00,02,13.70
2014,07,10,00,03,13.70
2014,07,10,00,04,13.70
2014,07,10,00,05,13.70
2014,07,10,00,06,13.70
2014,07,10,00,07,13.70
2014,07,10,00,08,13.70
2014,07,10,00,09,13.70
2014,07,10,00,10,13.70
2014,07,10,00,11,13.70
2014,07,10,00,12,13.70
2014,07,10,00,13,13.70
2014,07,10,00,14,13.70
2014,07,10,00,15,13.70
2014,07,10,00,16,13.70
2014,07,10,00,17,13.70
2014,07,10,00,18,13.70
2014,07,10,00,19,13.70
2014,07,10,00,20,13.70
2014,07,10,00,21,13.70
2014,07,10,00,22,13.70
2014,07,10,00,23,13.70
2014,07,10,00,24,13.70
2014,07,10,00,25,13.70
2014,07,10,00,26,13.70
2014,07,10,00,27,13.70
2014,07,10,00,28,13.70
2014,07,10,00,29,13.70
2014,07,10,00,30,13.70
2014,07,10,00,31,13.70
2014,07,10,00,32,13.80
2014,07,10,00,33,13.80
2014,07,10,00,34,13.80
2014,07,10,00,35,13.80
2014,07,10,00,36,13.80
2014,07,10,00,37,13.80
2014,07,10,00,38,13.80
2014,07,10,00,39,13.80
2014,07,10,00,40,13.90
2014,07,10,00,41,13.90
2014,07,10,00,42,13.90
2014,07,10,00,43,14.00
2014,07,10,00,44,14.00
2014,07,10,00,45,14.00
2014,07,10,00,46,14.00
2014,07,10,00,47,14.00
2014,07,10,00,48,14.00
2014,07,10,00,49,14.00
2014,07,10,00,50,14.00
2014,07,10,00,51,14.00
2014,07,10,00,52,14.10
2014,07,10,00,53,14.10
2014,07,10,00,54,14.10
2014,07,10,00,55,14.10
2014,07,10,00,56,14.20
2014,07,10,00,57,14.20
2014,07,10,00,58,14.20
2014,07,10,00,59,14.20
2014,07,10,01,00,14.20
2014,07,10,01,01,14.20
2014,07,10,01,02,14.20
2014,07,10,01,03,14.30
2014,07,10,01,04,14.30
2014,07,10,01,05,14.40
2014,07,10,01,06,14.40
2014,07,10,01,07,14.50
2014,07,10,01,08,14.50
2014,07,10,01,09,14.50
2014,07,10,01,10,14.60
2014,07,10,01,11,14.60
2014,07,10,01,12,14.60
2014,07,10,01,13,14.70
2014,07,10,01,14,14.70
2014,07,10,01,15,14.70
2014,07,10,01,16,14.70
2014,07,10,01,17,14.70
2014,07,10,01,18,14.80
2014,07,10,01,19,14.80
2014,07,10,01,20,14.80
2014,07,10,01,21,14.80
2014,07,10,01,22,14.80
2014,07,10,01,23,14.80
2014,07,10,01,24,14.80
2014,07,10,01,25,14.80
2014,07,10,01,26,14.80
2014,07,10,01,27,14.80
2014,07,10,01,28,14.80
2014,07,10,01,29,14.80
2014,07,10,01,30,14.80
2014,07,10,01,31,14.80
2014,07,10,01,32,14.80
2014,07,10,01,33,14.80
2014,07,10,01,34,14.80
2014,07,10,01,35,14.80
2014,07,10,01,36,14.80
2014,07,10,01,37,14.80
2014,07,10,01,38,14.80
2014,07,10,01,39,14.80
2014,07,10,01,40,14.80
2014,07,10,01,41,14.80
2014,07,10,01,42,14.80
2014,07,10,01,43,14.80
2014,07,10,01,44,14.70
2014,07,10,01,45,14.70
2014,07,10,01,46,14.70
2014,07,10,01,47,14.70
2014,07,10,01,48,14.60
2014,07,10,01,49,14.60
2014,07,10,01,50,14.60
2014,07,10,01,51,14.60
2014,07,10,01,52,14.60
2014,07,10,01,53,14.60
2014,07,10,01,54,14.50
2014,07,10,01,55,14.50
2014,07,10,01,56,14.50
2014,07,10,01,57,14.50
2014,07,10,01,58,14.50
2014,07,10,01,59,14.50
2014,07,10,02,00,14.40
2014,07,10,02,01,14.40
2014,07,10,02,02,14.40
2014,07,10,02,03,14.30
2014,07,10,02,04,14.30
2014,07,10,02,05,14.30
2014,07,10,02,06,14.30
2014,07,10,02,07,14.20
2014,07,10,02,08,14.20
2014,07,10,02,09,14.20
2014,07,10,02,10,14.20
2014,07,10,02,11,14.20
2014,07,10,02,12,14.20
2014,07,10,02,13,14.20
2014,07,10,02,14,14.20
2014,07,10,02,15,14.10
2014,07,10,02,16,14.10
2014,07,10,02,17,14.00
2014,07,10,02,18,14.00
2014,07,10,02,19,14.00
2014,07,10,02,20,13.90
2014,07,10,02,21,13.90
2014,07,10,02,22,13.90
2014,07,10,02,23,13.90
2014,07,10,02,24,13.80
2014,07,10,02,25,13.80
2014,07,10,02,26,13.80
2014,07,10,02,27,13.70
2014,07,10,02,28,13.70
2014,07,10,02,29,13.70
2014,07,10,02,30,13.80
2014,07,10,02,31,13.80
2014,07,10,02,32,13.90
2014,07,10,02,33,13.90
2014,07,10,02,34,14.00
2014,07,10,02,35,14.00
2014,07,10,02,36,14.10
2014,07,10,02,37,14.20
2014,07,10,02,38,14.20
2014,07,10,02,39,14.20
2014,07,10,02,40,14.20
2014,07,10,02,41,14.20
2014,07,10,02,42,14.20
2014,07,10,02,43,14.20
2014,07,10,02,44,14.20
2014,07,10,02,45,14.20
2014,07,10,02,46,14.20
2014,07,10,02,47,14.20
2014,07,10,02,48,14.20
2014,07,10,02,49,14.20
2014,07,10,02,50,14.20
2014,07,10,02,51,14.20
2014,07,10,02,52,14.20
2014,07,10,02,53,14.20
2014,07,10,02,54,14.20
2014,07,10,02,55,14.20
2014,07,10,02,56,14.20
2014,07,10,02,57,14.20
2014,07,10,02,58,14.20
2014,07,10,02,59,14.20
2014,07,10,03,00,14.20
2014,07,10,03,01,14.20
2014,07,10,03,02,14.20
2014,07,10,03,03,14.20
2014,07,10,03,04,14.10
2014,07,10,03,05,14.10
2014,07,10,03,06,14.10
2014,07,10,03,07,14.10
2014,07,10,03,08,14.10
2014,07,10,03,09,14.10
2014,07,10,03,10,14.10
2014,07,10,03,11,14.00
2014,07,10,03,12,14.00
2014,07,10,03,13,14.00
2014,07,10,03,14,14.00
2014,07,10,03,15,13.90
2014,07,10,03,16,13.90
2014,07,10,03,17,13.90
2014,07,10,03,18,13.90
2014,07,10,03,19,13.90
2014,07,10,03,20,13.90
2014,07,10,03,21,13.80
2014,07,10,03,22,13.80
2014,07,10,03,23,13.80
2014,07,10,03,24,13.80
2014,07,10,03,25,13.70
2014,07,10,03,26,13.70
2014,07,10,03,27,13.70
2014,07,10,03,28,13.70
2014,07,10,03,29,13.70
2014,07,10,03,30,13.70
2014,07,10,03,31,13.70
2014,07,10,03,32,13.70
2014,07,10,03,33,13.60
2014,07,10,03,34,13.60
2014,07,10,03,35,13.60
2014,07,10,03,36,13.60
2014,07,10,03,37,13.60
2014,07,10,03,38,13.50
2014,07,10,03,39,13.50
2014,07,10,03,40,13.50
2014,07,10,03,41,13.50
2014,07,10,03,42,13.50
2014,07,10,03,43,13.50
2014,07,10,03,44,13.50
2014,07,10,03,45,13.50
2014,07,10,03,46,13.40
2014,07,10,03,47,13.40
2014,07,10,03,48,13.40
2014,07,10,03,49,13.40
2014,07,10,03,50,13.40
2014,07,10,03,51,13.40
2014,07,10,03,52,13.40
2014,07,10,03,53,13.40
2014,07,10,03,54,13.40
2014,07,10,03,55,13.30
2014,07,10,03,56,13.30
2014,07,10,03,57,13.30
2014,07,10,03,58,13.30
2014,07,10,03,59,13.30
2014,07,10,04,00,13.30
2014,07,10,04,01,13.30
2014,07,10,04,02,13.30
2014,07,10,04,03,13.30
2014,07,10,04,04,13.30
2014,07,10,04,05,13.30
2014,07,10,04,06,13.30
2014,07,10,04,07,13.30
2014,07,10,04,08,13.30
2014,07,10,04,09,13.30
2014,07,10,04,10,13.30
2014,07,10,04,11,13.30
2014,07,10,04,12,13.30
2014,07,10,04,13,13.30
2014,07,10,04,14,13.30
2014,07,10,04,15,13.30
2014,07,10,04,16,13.30
2014,07,10,04,17,13.30
2014,07,10,04,18,13.30
2014,07,10,04,19,13.30
2014,07,10,04,20,13.30
2014,07,10,04,21,13.30
2014,07,10,04,22,13.30
2014,07,10,04,23,13.30
2014,07,10,04,24,13.30
2014,07,10,04,25,13.30
2014,07,10,04,26,13.30
2014,07,10,04,27,13.20
2014,07,10,04,28,13.20
2014,07,10,04,29,13.20
2014,07,10,04,30,13.20
2014,07,10,04,31,13.20
2014,07,10,04,32,13.20
2014,07,10,04,33,13.20
2014,07,10,04,34,13.20
2014,07,10,04,35,13.20
2014,07,10,04,36,13.20
2014,07,10,04,37,13.20
2014,07,10,04,38,13.20
2014,07,10,04,39,13.20
2014,07,10,04,40,13.20
2014,07,10,04,41,13.20
2014,07,10,04,42,13.10
2014,07,10,04,43,13.10
2014,07,10,04,44,13.10
2014,07,10,04,45,13.10
2014,07,10,04,46,13.10
2014,07,10,04,47,13.10
2014,07,10,04,48,13.10
2014,07,10,04,49,13.10
2014,07,10,04,50,13.10
2014,07,10,04,51,13.00
2014,07,10,04,52,13.00
2014,07,10,04,53,13.00
2014,07,10,04,54,13.00
2014,07,10,04,55,13.00
2014,07,10,04,56,12.90
2014,07,10,04,57,12.90
2014,07,10,04,58,12.90
2014,07,10,04,59,12.80
2014,07,10,05,00,12.80
2014,07,10,05,01,12.80
2014,07,10,05,02,12.80
2014,07,10,05,03,12.80
2014,07,10,05,04,12.80
2014,07,10,05,05,12.80
2014,07,10,05,06,12.70
2014,07,10,05,07,12.70
2014,07,10,05,08,12.70
2014,07,10,05,09,12.60
2014,07,10,05,10,12.60
2014,07,10,05,11,12.60
2014,07,10,05,12,12.60
2014,07,10,05,13,12.60
2014,07,10,05,14,12.70
2014,07,10,05,15,12.70
2014,07,10,05,16,12.70
2014,07,10,05,17,12.80
2014,07,10,05,18,12.80
2014,07,10,05,19,12.80
2014,07,10,05,20,12.80
2014,07,10,05,21,12.80
2014,07,10,05,22,12.80
2014,07,10,05,23,12.80
2014,07,10,05,24,12.80
2014,07,10,05,25,12.80
2014,07,10,05,26,12.90
2014,07,10,05,27,12.90
2014,07,10,05,28,12.90
2014,07,10,05,29,12.80
2014,07,10,05,30,12.80
2014,07,10,05,31,12.80
2014,07,10,05,32,12.80
2014,07,10,05,33,12.80
2014,07,10,05,34,12.80
2014,07,10,05,35,12.80
2014,07,10,05,36,12.80
2014,07,10,05,37,12.80
2014,07,10,05,38,12.80
2014,07,10,05,39,12.80
2014,07,10,05,40,12.80
2014,07,10,05,41,12.80
2014,07,10,05,42,12.80
2014,07,10,05,43,12.90
2014,07,10,05,44,12.90
2014,07,10,05,45,12.90
2014,07,10,05,46,12.90
2014,07,10,05,47,13.00
2014,07,10,05,48,13.00
2014,07,10,05,49,13.00
2014,07,10,05,50,13.00
2014,07,10,05,51,13.00
2014,07,10,05,52,13.00
2014,07,10,05,53,13.00
2014,07,10,05,54,13.10
2014,07,10,05,55,13.10
2014,07,10,05,56,13.10
2014,07,10,05,57,13.10
2014,07,10,05,58,13.10
2014,07,10,05,59,13.20
2014,07,10,06,00,13.20
2014,07,10,06,01,13.20
2014,07,10,06,02,13.20
2014,07,10,06,03,13.20
2014,07,10,06,04,13.30
2014,07,10,06,05,13.30
2014,07,10,06,06,13.30
2014,07,10,06,07,13.30
2014,07,10,06,08,13.30
2014,07,10,06,09,13.30
2014,07,10,06,10,13.30
2014,07,10,06,11,13.40
2014,07,10,06,12,13.40
2014,07,10,06,13,13.40
2014,07,10,06,14,13.40
2014,07,10,06,15,13.40
2014,07,10,06,16,13.50
2014,07,10,06,17,13.50
2014,07,10,06,18,13.50
2014,07,10,06,19,13.40
2014,07,10,06,20,13.40
2014,07,10,06,21,13.50
2014,07,10,06,22,13.50
2014,07,10,06,23,13.50
2014,07,10,06,24,13.50
2014,07,10,06,25,13.50
2014,07,10,06,26,13.60
2014,07,10,06,27,13.60
2014,07,10,06,28,13.70
2014,07,10,06,29,13.70
2014,07,10,06,30,13.70
2014,07,10,06,31,13.80
2014,07,10,06,32,13.80
2014,07,10,06,33,13.90
2014,07,10,06,34,13.90
2014,07,10,06,35,14.00
2014,07,10,06,36,14.00
2014,07,10,06,37,14.10
2014,07,10,06,38,14.10
2014,07,10,06,39,14.20
2014,07,10,06,40,14.20
2014,07,10,06,41,14.30
2014,07,10,06,42,14.30
2014,07,10,06,43,14.40
2014,07,10,06,44,14.40
2014,07,10,06,45,14.50
2014,07,10,06,46,14.50
2014,07,10,06,47,14.60
2014,07,10,06,48,14.60
2014,07,10,06,49,14.60
2014,07,10,06,50,14.70
2014,07,10,06,51,14.70
2014,07,10,06,52,14.70
2014,07,10,06,53,14.80
2014,07,10,06,54,14.80
2014,07,10,06,55,14.80
2014,07,10,06,56,14.90
2014,07,10,06,57,14.90
2014,07,10,06,58,15.00
2014,07,10,06,59,15.00
2014,07,10,07,00,15.00
2014,07,10,07,01,15.00
2014,07,10,07,02,15.10
2014,07,10,07,03,15.20
2014,07,10,07,04,15.20
2014,07,10,07,05,15.20
2014,07,10,07,06,15.30
2014,07,10,07,07,15.30
2014,07,10,07,08,15.30
2014,07,10,07,09,15.30
2014,07,10,07,10,15.40
2014,07,10,07,11,15.50
2014,07,10,07,12,15.60
2014,07,10,07,13,15.60
2014,07,10,07,14,15.70
2014,07,10,07,15,15.70
2014,07,10,07,16,15.80
2014,07,10,07,17,15.80
2014,07,10,07,18,16.00
2014,07,10,07,19,16.10
2014,07,10,07,20,16.20
2014,07,10,07,21,16.30
2014,07,10,07,22,16.30
2014,07,10,07,23,16.40
2014,07,10,07,24,16.40
2014,07,10,07,25,16.40
2014,07,10,07,26,16.40
2014,07,10,07,27,16.50
2014,07,10,07,28,16.60
2014,07,10,07,29,16.70
2014,07,10,07,30,16.80
2014,07,10,07,31,16.80
2014,07,10,07,32,16.90
2014,07,10,07,33,16.90
2014,07,10,07,34,16.90
2014,07,10,07,35,16.90
2014,07,10,07,36,16.90
2014,07,10,07,37,16.80
2014,07,10,07,38,16.70
2014,07,10,07,39,16.70
2014,07,10,07,40,16.70
2014,07,10,07,41,16.70
2014,07,10,07,42,16.70
2014,07,10,07,43,16.70
2014,07,10,07,44,16.70
2014,07,10,07,45,16.70
2014,07,10,07,46,16.70
2014,07,10,07,47,16.70
2014,07,10,07,48,16.70
2014,07,10,07,49,16.80
2014,07,10,07,50,16.80
2014,07,10,07,51,16.90
2014,07,10,07,52,16.90
2014,07,10,07,53,16.90
2014,07,10,07,54,16.90
2014,07,10,07,55,16.90
2014,07,10,07,56,16.90
2014,07,10,07,57,17.00
2014,07,10,07,58,17.00
2014,07,10,07,59,17.20
2014,07,10,08,00,17.20
2014,07,10,08,01,17.20
2014,07,10,08,02,17.30
2014,07,10,08,03,17.30
2014,07,10,08,04,17.30
2014,07,10,08,05,17.30
2014,07,10,08,06,17.30
2014,07,10,08,07,17.30
2014,07,10,08,08,17.30
2014,07,10,08,09,17.30
2014,07,10,08,10,17.30
2014,07,10,08,11,17.40
2014,07,10,08,12,17.50
2014,07,10,08,13,17.60
2014,07,10,08,14,17.70
2014,07,10,08,15,17.80
2014,07,10,08,16,17.90
2014,07,10,08,17,18.00
2014,07,10,08,18,18.10
2014,07,10,08,19,18.20
2014,07,10,08,20,18.30
2014,07,10,08,21,18.40
2014,07,10,08,22,18.50
2014,07,10,08,23,18.60
2014,07,10,08,24,18.60
2014,07,10,08,25,18.60
2014,07,10,08,26,18.70
2014,07,10,08,27,18.80
2014,07,10,08,28,18.80
2014,07,10,08,29,18.70
2014,07,10,08,30,18.70
2014,07,10,08,31,18.70
2014,07,10,08,32,18.80
2014,07,10,08,33,18.80
2014,07,10,08,34,18.80
2014,07,10,08,35,18.90
2014,07,10,08,36,18.90
2014,07,10,08,37,18.90
2014,07,10,08,38,18.90
2014,07,10,08,39,18.90
2014,07,10,08,40,18.90
2014,07,10,08,41,18.90
2014,07,10,08,42,18.90
2014,07,10,08,43,18.90
2014,07,10,08,44,18.90
2014,07,10,08,45,18.80
2014,07,10,08,46,18.70
2014,07,10,08,47,18.60
2014,07,10,08,48,18.60
2014,07,10,08,49,18.50
2014,07,10,08,50,18.50
2014,07,10,08,51,18.50
2014,07,10,08,52,18.40
2014,07,10,08,53,18.40
2014,07,10,08,54,18.20
2014,07,10,08,55,18.20
2014,07,10,08,56,18.20
2014,07,10,08,57,18.10
2014,07,10,08,58,18.00
2014,07,10,08,59,17.90
2014,07,10,09,00,17.90
2014,07,10,09,01,17.90
2014,07,10,09,02,17.80
2014,07,10,09,03,17.70
2014,07,10,09,04,17.60
2014,07,10,09,05,17.60
2014,07,10,09,06,17.70
2014,07,10,09,07,17.70
2014,07,10,09,08,17.80
2014,07,10,09,09,17.80
2014,07,10,09,10,17.70
2014,07,10,09,11,17.60
2014,07,10,09,12,17.60
2014,07,10,09,13,17.60
2014,07,10,09,14,17.50
2014,07,10,09,15,17.60
2014,07,10,09,16,17.50
2014,07,10,09,17,17.50
2014,07,10,09,18,17.50
2014,07,10,09,19,17.40
2014,07,10,09,20,17.30
2014,07,10,09,21,17.20
2014,07,10,09,22,17.10
2014,07,10,09,23,17.00
2014,07,10,09,24,17.00
2014,07,10,09,25,17.00
2014,07,10,09,26,17.00
2014,07,10,09,27,17.00
2014,07,10,09,28,17.10
2014,07,10,09,29,17.20
2014,07,10,09,30,17.30
2014,07,10,09,31,17.30
2014,07,10,09,32,17.30
2014,07,10,09,33,17.40
2014,07,10,09,34,17.60
2014,07,10,09,35,17.70
2014,07,10,09,36,17.60
2014,07,10,09,37,17.50
2014,07,10,09,38,17.50
2014,07,10,09,39,17.40
2014,07,10,09,40,17.40
2014,07,10,09,41,17.30
2014,07,10,09,42,17.30
2014,07,10,09,43,17.40
2014,07,10,09,44,17.40
2014,07,10,09,45,17.50
2014,07,10,09,46,17.50
2014,07,10,09,47,17.60
2014,07,10,09,48,17.50
2014,07,10,09,49,17.50
2014,07,10,09,50,17.50
2014,07,10,09,51,17.40
2014,07,10,09,52,17.40
2014,07,10,09,53,17.40
2014,07,10,09,54,17.40
2014,07,10,09,55,17.30
2014,07,10,09,56,17.30
2014,07,10,09,57,17.30
2014,07,10,09,58,17.30
2014,07,10,09,59,17.40
2014,07,10,10,00,17.50
2014,07,10,10,01,17.40
2014,07,10,10,02,17.40
2014,07,10,10,03,17.40
2014,07,10,10,04,17.40
2014,07,10,10,05,17.30
2014,07,10,10,06,17.30
2014,07,10,10,07,17.20
2014,07,10,10,08,17.20
2014,07,10,10,09,17.20
2014,07,10,10,10,17.20
2014,07,10,10,11,17.20
2014,07,10,10,12,17.20
2014,07,10,10,13,17.30
2014,07,10,10,14,17.50
2014,07,10,10,15,17.60
2014,07,10,10,16,17.80
2014,07,10,10,17,17.90
2014,07,10,10,18,17.90
2014,07,10,10,19,17.80
2014,07,10,10,20,17.80
2014,07,10,10,21,17.70
2014,07,10,10,22,17.50
2014,07,10,10,23,17.40
2014,07,10,10,24,17.40
2014,07,10,10,25,17.40
2014,07,10,10,26,17.40
2014,07,10,10,27,17.40
2014,07,10,10,28,17.40
2014,07,10,10,29,17.30
2014,07,10,10,30,17.30
2014,07,10,10,31,17.30
2014,07,10,10,32,17.30
2014,07,10,10,33,17.40
2014,07,10,10,34,17.50
2014,07,10,10,35,17.50
2014,07,10,10,36,17.50
2014,07,10,10,37,17.50
2014,07,10,10,38,17.50
2014,07,10,10,39,17.60
2014,07,10,10,40,17.80
2014,07,10,10,41,17.90
2014,07,10,10,42,18.00
2014,07,10,10,43,18.10
2014,07,10,10,44,18.40
2014,07,10,10,45,18.50
2014,07,10,10,46,18.60
2014,07,10,10,47,18.50
2014,07,10,10,48,18.30
2014,07,10,10,49,18.10
2014,07,10,10,50,18.00
2014,07,10,10,51,17.90
2014,07,10,10,52,17.90
2014,07,10,10,53,17.90
2014,07,10,10,54,17.80
2014,07,10,10,55,17.70
2014,07,10,10,56,17.70
2014,07,10,10,57,17.70
2014,07,10,10,58,17.80
2014,07,10,10,59,17.90
2014,07,10,11,00,17.90
2014,07,10,11,01,17.90
2014,07,10,11,02,17.90
2014,07,10,11,03,17.80
2014,07,10,11,04,17.80
2014,07,10,11,05,17.80
2014,07,10,11,06,17.80
2014,07,10,11,07,17.80
2014,07,10,11,08,17.80
2014,07,10,11,09,17.80
2014,07,10,11,10,17.90
2014,07,10,11,11,17.90
2014,07,10,11,12,18.00
2014,07,10,11,13,18.10
2014,07,10,11,14,18.10
2014,07,10,11,15,18.20
2014,07,10,11,16,18.10
2014,07,10,11,17,18.10
2014,07,10,11,18,18.00
2014,07,10,11,19,17.90
2014,07,10,11,20,17.90
2014,07,10,11,21,17.90
2014,07,10,11,22,17.80
2014,07,10,11,23,17.80
2014,07,10,11,24,17.70
2014,07,10,11,25,17.80
2014,07,10,11,26,17.90
2014,07,10,11,27,18.00
2014,07,10,11,28,18.10
2014,07,10,11,29,18.00
2014,07,10,11,30,17.90
2014,07,10,11,31,17.90
2014,07,10,11,32,17.90
2014,07,10,11,33,17.90
2014,07,10,11,34,17.80
2014,07,10,11,35,17.80
2014,07,10,11,36,17.90
2014,07,10,11,37,17.90
2014,07,10,11,38,17.80
2014,07,10,11,39,17.80
2014,07,10,11,40,17.90
2014,07,10,11,41,18.00
2014,07,10,11,42,18.10
2014,07,10,11,43,18.20
2014,07,10,11,44,18.20
2014,07,10,11,45,18.20
2014,07,10,11,46,18.30
2014,07,10,11,47,18.30
2014,07,10,11,48,18.30
2014,07,10,11,49,18.40
2014,07,10,11,50,18.50
2014,07,10,11,51,18.70
2014,07,10,11,52,18.90
2014,07,10,11,53,19.00
2014,07,10,11,54,19.10
2014,07,10,11,55,19.20
2014,07,10,11,56,19.30
2014,07,10,11,57,19.20
2014,07,10,11,58,19.10
2014,07,10,11,59,19.00
2014,07,10,12,00,18.90
2014,07,10,12,01,18.90
2014,07,10,12,02,18.80
2014,07,10,12,03,18.70
2014,07,10,12,04,18.60
2014,07,10,12,05,18.60
2014,07,10,12,06,18.60
2014,07,10,12,07,18.70
2014,07,10,12,08,18.90
2014,07,10,12,09,19.00
2014,07,10,12,10,19.10
2014,07,10,12,11,19.10
2014,07,10,12,12,19.10
2014,07,10,12,13,19.10
2014,07,10,12,14,19.00
2014,07,10,12,15,18.90
2014,07,10,12,16,18.80
2014,07,10,12,17,18.80
2014,07,10,12,18,18.90
2014,07,10,12,19,19.00
2014,07,10,12,20,19.10
2014,07,10,12,21,19.10
2014,07,10,12,22,19.10
2014,07,10,12,23,19.10
2014,07,10,12,24,19.20
2014,07,10,12,25,19.20
2014,07,10,12,26,19.20
2014,07,10,12,27,19.20
2014,07,10,12,28,19.40
2014,07,10,12,29,19.50
2014,07,10,12,30,19.70
2014,07,10,12,31,19.90
2014,07,10,12,32,19.90
2014,07,10,12,33,19.80
2014,07,10,12,34,19.70
2014,07,10,12,35,19.60
2014,07,10,12,36,19.60
2014,07,10,12,37,19.70
2014,07,10,12,38,19.60
2014,07,10,12,39,19.70
2014,07,10,12,40,19.80
2014,07,10,12,41,19.80
2014,07,10,12,42,19.90
2014,07,10,12,43,20.10
2014,07,10,12,44,20.20
2014,07,10,12,45,20.00
2014,07,10,12,46,19.90
2014,07,10,12,47,19.90
2014,07,10,12,48,19.90
2014,07,10,12,49,19.70
2014,07,10,12,50,19.50
2014,07,10,12,51,19.40
2014,07,10,12,52,19.30
2014,07,10,12,53,19.20
2014,07,10,12,54,19.20
2014,07,10,12,55,19.30
2014,07,10,12,56,19.30
2014,07,10,12,57,19.30
2014,07,10,12,58,19.30
2014,07,10,12,59,19.30
2014,07,10,13,00,19.20
2014,07,10,13,01,19.20
2014,07,10,13,02,19.20
2014,07,10,13,03,19.40
2014,07,10,13,04,19.60
2014,07,10,13,05,19.70
2014,07,10,13,06,19.70
2014,07,10,13,07,19.70
2014,07,10,13,08,19.70
2014,07,10,13,09,19.60
2014,07,10,13,10,19.50
2014,07,10,13,11,19.50
2014,07,10,13,12,19.50
2014,07,10,13,13,19.40
2014,07,10,13,14,19.40
2014,07,10,13,15,19.30
2014,07,10,13,16,19.20
2014,07,10,13,17,19.10
2014,07,10,13,18,19.30
2014,07,10,13,19,19.40
2014,07,10,13,20,19.30
2014,07,10,13,21,19.40
2014,07,10,13,22,19.40
2014,07,10,13,23,19.40
2014,07,10,13,24,19.40
2014,07,10,13,25,19.40
2014,07,10,13,26,19.40
2014,07,10,13,27,19.30
2014,07,10,13,28,19.30
2014,07,10,13,29,19.30
2014,07,10,13,30,19.30
2014,07,10,13,31,19.20
2014,07,10,13,32,19.30
2014,07,10,13,33,19.30
2014,07,10,13,34,19.30
2014,07,10,13,35,19.40
2014,07,10,13,36,19.50
2014,07,10,13,37,19.60
2014,07,10,13,38,19.80
2014,07,10,13,39,19.90
2014,07,10,13,40,19.80
2014,07,10,13,41,19.80
2014,07,10,13,42,19.90
2014,07,10,13,43,20.00
2014,07,10,13,44,20.10
2014,07,10,13,45,20.10
2014,07,10,13,46,20.10
2014,07,10,13,47,20.20
2014,07,10,13,48,20.10
2014,07,10,13,49,20.10
2014,07,10,13,50,20.00
2014,07,10,13,51,20.00
2014,07,10,13,52,20.20
2014,07,10,13,53,20.10
2014,07,10,13,54,20.20
2014,07,10,13,55,20.20
2014,07,10,13,56,20.20
2014,07,10,13,57,20.10
2014,07,10,13,58,20.20
2014,07,10,13,59,20.30
2014,07,10,14,00,20.40
2014,07,10,14,01,20.50
2014,07,10,14,02,20.40
2014,07,10,14,03,20.30
2014,07,10,14,04,20.30
2014,07,10,14,05,20.40
2014,07,10,14,06,20.40
2014,07,10,14,07,20.40
2014,07,10,14,08,20.40
2014,07,10,14,09,20.50
2014,07,10,14,10,20.70
2014,07,10,14,11,20.70
2014,07,10,14,12,20.70
2014,07,10,14,13,20.70
2014,07,10,14,14,20.60
2014,07,10,14,15,20.50
2014,07,10,14,16,20.40
2014,07,10,14,17,20.50
2014,07,10,14,18,20.40
2014,07,10,14,19,20.30
2014,07,10,14,20,20.50
2014,07,10,14,21,20.60
2014,07,10,14,22,20.70
2014,07,10,14,23,20.70
2014,07,10,14,24,20.60
2014,07,10,14,25,20.60
2014,07,10,14,26,20.60
2014,07,10,14,27,20.60
2014,07,10,14,28,20.70
2014,07,10,14,29,21.00
2014,07,10,14,30,21.20
2014,07,10,14,31,21.20
2014,07,10,14,32,21.10
2014,07,10,14,33,21.20
2014,07,10,14,34,21.30
2014,07,10,14,35,21.30
2014,07,10,14,36,21.30
2014,07,10,14,37,21.30
2014,07,10,14,38,21.30
2014,07,10,14,39,21.30
2014,07,10,14,40,21.30
2014,07,10,14,41,21.30
2014,07,10,14,42,21.30
2014,07,10,14,43,21.30
2014,07,10,14,44,21.30
2014,07,10,14,45,21.10
2014,07,10,14,46,20.90
2014,07,10,14,47,20.90
2014,07,10,14,48,20.90
2014,07,10,14,49,20.90
2014,07,10,14,50,20.90
2014,07,10,14,51,20.90
2014,07,10,14,52,20.90
2014,07,10,14,53,20.90
2014,07,10,14,54,21.10
2014,07,10,14,55,21.20
2014,07,10,14,56,21.30
2014,07,10,14,57,21.40
2014,07,10,14,58,21.50
2014,07,10,14,59,21.70
2014,07,10,15,00,21.90
2014,07,10,15,01,22.00
2014,07,10,15,02,22.00
2014,07,10,15,03,22.10
2014,07,10,15,04,22.20
2014,07,10,15,05,22.40
2014,07,10,15,06,22.40
2014,07,10,15,07,22.40
2014,07,10,15,08,22.30
2014,07,10,15,09,22.20
2014,07,10,15,10,22.10
2014,07,10,15,11,22.00
2014,07,10,15,12,22.20
2014,07,10,15,13,22.20
2014,07,10,15,14,22.30
2014,07,10,15,15,22.20
2014,07,10,15,16,22.30
2014,07,10,15,17,22.40
2014,07,10,15,18,22.30
2014,07,10,15,19,22.30
2014,07,10,15,20,22.40
2014,07,10,15,21,22.50
2014,07,10,15,22,22.50
2014,07,10,15,23,22.30
2014,07,10,15,24,22.20
2014,07,10,15,25,22.20
2014,07,10,15,26,22.10
2014,07,10,15,27,22.00
2014,07,10,15,28,21.90
2014,07,10,15,29,21.90
2014,07,10,15,30,22.00
2014,07,10,15,31,22.00
2014,07,10,15,32,21.80
2014,07,10,15,33,21.70
2014,07,10,15,34,21.70
2014,07,10,15,35,21.70
2014,07,10,15,36,21.70
2014,07,10,15,37,21.80
2014,07,10,15,38,21.80
2014,07,10,15,39,21.80
2014,07,10,15,40,21.90
2014,07,10,15,41,22.00
2014,07,10,15,42,22.00
2014,07,10,15,43,22.10
2014,07,10,15,44,22.10
2014,07,10,15,45,22.10
2014,07,10,15,46,22.10
2014,07,10,15,47,22.20
2014,07,10,15,48,22.20
2014,07,10,15,49,22.10
2014,07,10,15,50,22.00
2014,07,10,15,51,21.80
2014,07,10,15,52,21.60
2014,07,10,15,53,21.50
2014,07,10,15,54,21.30
2014,07,10,15,55,21.30
2014,07,10,15,56,21.20
2014,07,10,15,57,21.20
2014,07,10,15,58,21.30
2014,07,10,15,59,21.30
2014,07,10,16,00,21.30
2014,07,10,16,01,21.30
2014,07,10,16,02,21.20
2014,07,10,16,03,21.10
2014,07,10,16,04,21.10
2014,07,10,16,05,21.00
2014,07,10,16,06,20.90
2014,07,10,16,07,20.80
2014,07,10,16,08,20.70
2014,07,10,16,09,20.70
2014,07,10,16,10,20.70
2014,07,10,16,11,20.80
2014,07,10,16,12,20.80
2014,07,10,16,13,20.80
2014,07,10,16,14,20.60
2014,07,10,16,15,20.50
2014,07,10,16,16,20.60
2014,07,10,16,17,20.70
2014,07,10,16,18,20.80
2014,07,10,16,19,21.00
2014,07,10,16,20,21.10
2014,07,10,16,21,21.30
2014,07,10,16,22,21.50
2014,07,10,16,23,21.60
2014,07,10,16,24,21.60
2014,07,10,16,25,21.60
2014,07,10,16,26,21.50
2014,07,10,16,27,21.40
2014,07,10,16,28,21.30
2014,07,10,16,29,21.20
2014,07,10,16,30,21.10
2014,07,10,16,31,21.00
2014,07,10,16,32,20.90
2014,07,10,16,33,20.90
2014,07,10,16,34,21.00
2014,07,10,16,35,21.00
2014,07,10,16,36,21.00
2014,07,10,16,37,21.10
2014,07,10,16,38,21.10
2014,07,10,16,39,21.30
2014,07,10,16,40,21.40
2014,07,10,16,41,21.60
2014,07,10,16,42,21.60
2014,07,10,16,43,21.70
2014,07,10,16,44,21.80
2014,07,10,16,45,21.90
2014,07,10,16,46,22.00
2014,07,10,16,47,22.10
2014,07,10,16,48,22.10
2014,07,10,16,49,22.10
2014,07,10,16,50,22.10
2014,07,10,16,51,22.00
2014,07,10,16,52,22.00
2014,07,10,16,53,22.10
2014,07,10,16,54,22.10
2014,07,10,16,55,22.20
2014,07,10,16,56,22.30
2014,07,10,16,57,22.20
2014,07,10,16,58,22.10
2014,07,10,16,59,22.00
2014,07,10,17,00,22.00
2014,07,10,17,01,22.00
2014,07,10,17,02,21.90
2014,07,10,17,03,21.80
2014,07,10,17,04,21.80
2014,07,10,17,05,21.80
2014,07,10,17,06,21.80
2014,07,10,17,07,21.80
2014,07,10,17,08,21.80
2014,07,10,17,09,21.90
2014,07,10,17,10,21.80
2014,07,10,17,11,21.80
2014,07,10,17,12,21.60
2014,07,10,17,13,21.50
2014,07,10,17,14,21.40
2014,07,10,17,15,21.30
2014,07,10,17,16,21.10
2014,07,10,17,17,21.00
2014,07,10,17,18,20.90
2014,07,10,17,19,20.80